| time (UTC) | temp F | wind direction | speed MPH | gust MPH | rain 1hr in | rain 24hr in | rain mn in | humidity % | barometer mb |
| 20260905001601 | 66 | 35 | 0.0 | 1.0 | 0.00 | 0.11 | 0.11 | 89 | 1016.0 |
| 20260904234606 | 67 | 0 | 0.0 | 3.0 | 0.00 | 0.11 | 0.11 | 88 | 1016.0 |
| 20260904233107 | 67 | 0 | 0.0 | 6.0 | 0.00 | 0.11 | 0.11 | 88 | 1016.0 |
| 20260904231603 | 67 | 44 | 1.0 | 5.0 | 0.00 | 0.11 | 0.11 | 87 | 1015.8 |
| 20260904224607 | 67 | 42 | 1.0 | 3.0 | 0.00 | 0.11 | 0.11 | 88 | 1015.7 |
| 20260904223107 | 67 | 46 | 0.0 | 5.0 | 0.00 | 0.11 | 0.11 | 88 | 1015.4 |
| 20260904221613 | 67 | 0 | 0.0 | 3.0 | 0.00 | 0.11 | 0.11 | 88 | 1015.4 |
| 20260904220107 | 67 | 46 | 1.0 | 3.0 | 0.00 | 0.11 | 0.11 | 89 | 1015.3 |
| 20260904214624 | 67 | 67 | 1.0 | 4.0 | 0.00 | 0.11 | 0.11 | 89 | 1015.3 |
| 20260904213107 | 67 | 16 | 2.0 | 5.0 | 0.00 | 0.11 | 0.11 | 89 | 1015.2 |
| 20260904211625 | 68 | 32 | 1.0 | 7.0 | 0.00 | 0.11 | 0.11 | 89 | 1015.1 |
| 20260904204602 | 70 | 49 | 1.0 | 6.0 | 0.00 | 0.11 | 0.11 | 88 | 1014.9 |
| 20260904203119 | 71 | 58 | 1.0 | 3.0 | 0.00 | 0.11 | 0.11 | 88 | 1014.7 |
| 20260904201606 | 71 | 40 | 0.0 | 1.0 | 0.00 | 0.11 | 0.11 | 88 | 1014.6 |
| 20260904200117 | 71 | 0 | 0.0 | 1.0 | 0.00 | 0.11 | 0.11 | 88 | 1014.7 |
| 20260904194603 | 71 | 0 | 0.0 | 3.0 | 0.00 | 0.11 | 0.11 | 88 | 1014.7 |
| 20260904193107 | 71 | 36 | 1.0 | 3.0 | 0.00 | 0.11 | 0.11 | 88 | 1014.4 |
| 20260904191602 | 70 | 0 | 0.0 | 3.0 | 0.00 | 0.11 | 0.11 | 89 | 1014.4 |
| 20260904184603 | 70 | 57 | 0.0 | 2.0 | 0.00 | 0.11 | 0.11 | 89 | 1014.2 |
| 20260904183107 | 71 | 75 | 0.0 | 5.0 | 0.00 | 0.11 | 0.11 | 89 | 1014.1 |
| 20260904181603 | 71 | 30 | 0.0 | 4.0 | 0.00 | 0.11 | 0.11 | 89 | 1014.1 |
| 20260904180124 | 71 | 0 | 0.0 | 1.0 | 0.00 | 0.11 | 0.11 | 89 | 1014.1 |
| 20260904174610 | 71 | 0 | 0.0 | 4.0 | 0.00 | 0.11 | 0.11 | 89 | 1014.1 |
| 20260904173106 | 72 | 311 | 0.0 | 1.0 | 0.00 | 0.11 | 0.11 | 88 | 1014.0 |
| 20260904171607 | 72 | 0 | 0.0 | 1.0 | 0.00 | 0.11 | 0.11 | 89 | 1013.9 |
| 20260904170107 | 71 | 0 | 0.0 | 1.0 | 0.00 | 0.11 | 0.11 | 89 | 1014.0 |
| 20260904164620 | 71 | 0 | 0.0 | 1.0 | 0.00 | 0.11 | 0.11 | 89 | 1013.9 |
| 20260904163100 | 70 | 345 | 1.0 | 3.0 | 0.00 | 0.11 | 0.11 | 90 | 1013.9 |
| 20260904161610 | 69 | 0 | 0.0 | 0.0 | 0.00 | 0.11 | 0.11 | 91 | 1013.9 |
| 20260904154605 | 68 | 0 | 0.0 | 0.0 | 0.00 | 0.11 | 0.11 | 92 | 1013.9 |
| 20260904153140 | 68 | 0 | 0.0 | 0.0 | 0.00 | 0.11 | 0.11 | 93 | 1013.7 |
| 20260904151600 | 67 | 0 | 0.0 | 0.0 | 0.00 | 0.11 | 0.11 | 93 | 1013.7 |
| 20260904150100 | 66 | 0 | 0.0 | 0.0 | 0.00 | 0.11 | 0.11 | 93 | 1013.7 |
| 20260904144603 | 66 | 0 | 0.0 | 0.0 | 0.00 | 0.11 | 0.11 | 93 | 1013.6 |
| 20260904143102 | 65 | 0 | 0.0 | 0.0 | 0.00 | 0.11 | 0.11 | 93 | 1013.4 |
| 20260904141602 | 65 | 0 | 0.0 | 0.0 | 0.00 | 0.11 | 0.11 | 93 | 1013.3 |
| 20260904134608 | 65 | 0 | 0.0 | 0.0 | 0.00 | 0.11 | 0.11 | 93 | 1013.2 |
| 20260904133106 | 64 | 0 | 0.0 | 0.0 | 0.00 | 0.11 | 0.11 | 93 | 1013.0 |
| 20260904131635 | 64 | 0 | 0.0 | 0.0 | 0.00 | 0.11 | 0.11 | 93 | 1012.6 |
| 20260904130104 | 64 | 0 | 0.0 | 0.0 | 0.00 | 0.11 | 0.11 | 93 | 1012.5 |
| 20260904124606 | 64 | 0 | 0.0 | 0.0 | 0.00 | 0.11 | 0.11 | 93 | 1012.2 |
| 20260904123106 | 63 | 0 | 0.0 | 0.0 | 0.00 | 0.11 | 0.11 | 93 | 1011.9 |
| 20260904121604 | 63 | 0 | 0.0 | 0.0 | 0.00 | 0.11 | 0.11 | 92 | 1011.8 |
| 20260904120108 | 63 | 0 | 0.0 | 0.0 | 0.00 | 0.11 | 0.11 | 92 | 1011.7 |
| 20260904114604 | 64 | 0 | 0.0 | 0.0 | 0.00 | 0.11 | 0.11 | 92 | 1011.5 |
| 20260904113105 | 64 | 0 | 0.0 | 0.0 | 0.00 | 0.11 | 0.11 | 92 | 1011.4 |
| 20260904111618 | 64 | 0 | 0.0 | 0.0 | 0.00 | 0.11 | 0.11 | 92 | 1011.1 |
| 20260904104606 | 64 | 0 | 0.0 | 0.0 | 0.00 | 0.11 | 0.11 | 92 | 1011.0 |
| 20260904103111 | 64 | 0 | 0.0 | 0.0 | 0.00 | 0.11 | 0.11 | 92 | 1011.4 |
| 20260904101601 | 64 | 0 | 0.0 | 0.0 | 0.00 | 0.11 | 0.11 | 92 | 1011.5 |
| 20260904100100 | 64 | 0 | 0.0 | 0.0 | 0.00 | 0.11 | 0.11 | 92 | 1011.7 |
| 20260904094600 | 64 | 0 | 0.0 | 0.0 | 0.11 | 0.11 | 0.11 | 92 | 1011.8 |
| 20260904093105 | 64 | 0 | 0.0 | 0.0 | 0.11 | 0.11 | 0.11 | 92 | 1011.8 |
| 20260904091610 | 64 | 0 | 0.0 | 2.0 | 0.11 | 0.11 | 0.11 | 92 | 1011.8 |
| 20260904090100 | 64 | 0 | 0.0 | 11.0 | 0.11 | 0.11 | 0.11 | 91 | 1012.5 |
| 20260904084608 | 64 | 280 | 0.0 | 0.0 | 0.00 | 0.00 | 0.00 | 91 | 1012.6 |
| 20260904083111 | 64 | 0 | 0.0 | 0.0 | 0.00 | 0.00 | 0.00 | 91 | 1011.7 |
| 20260904081607 | 64 | 0 | 0.0 | 0.0 | 0.00 | 0.00 | 0.00 | 91 | 1011.7 |
| 20260904080104 | 64 | 0 | 0.0 | 3.0 | 0.00 | 0.00 | 0.00 | 91 | 1011.7 |
| 20260904074610 | 64 | 0 | 0.0 | 2.0 | 0.00 | 0.00 | 0.00 | 91 | 1011.7 |
| 20260904073102 | 64 | 0 | 0.0 | 0.0 | 0.00 | 0.00 | 0.00 | 91 | 1012.0 |
| 20260904071606 | 64 | 35 | 0.0 | 3.0 | 0.00 | 0.00 | 0.00 | 91 | 1011.8 |
| 20260904070129 | 64 | 0 | 1.0 | 3.0 | 0.00 | 0.00 | 0.00 | 90 | 1011.9 |
| 20260904064559 | 64 | 39 | 1.0 | 3.0 | 0.00 | 0.00 | 0.00 | 90 | 1012.3 |
| 20260904063104 | 64 | 0 | 0.0 | 0.0 | 0.00 | 0.00 | 0.00 | 89 | 1012.6 |
| 20260904061614 | 65 | 0 | 0.0 | 0.0 | 0.00 | 0.00 | 0.00 | 89 | 1012.7 |
| 20260904060103 | 65 | 0 | 0.0 | 1.0 | 0.00 | 0.00 | 0.00 | 89 | 1012.9 |
| 20260904054607 | 65 | 0 | 1.0 | 5.0 | 0.00 | 0.00 | 0.00 | 89 | 1013.1 |
| 20260904053104 | 64 | 71 | 0.0 | 1.0 | 0.00 | 0.00 | 0.00 | 89 | 1013.2 |
| 20260904051609 | 65 | 44 | 1.0 | 6.0 | 0.00 | 0.00 | 0.00 | 89 | 1013.5 |
| 20260904044613 | 66 | 35 | 1.0 | 2.0 | 0.00 | 0.00 | 0.00 | 88 | 1013.1 |
| 20260904043104 | 66 | 0 | 0.0 | 3.0 | 0.00 | 0.00 | 0.00 | 88 | 1013.4 |
| 20260904041612 | 66 | 155 | 0.0 | 3.0 | 0.00 | 0.00 | 0.00 | 89 | 1013.1 |
| 20260904040112 | 66 | 156 | 0.0 | 2.0 | 0.00 | 0.00 | 0.00 | 89 | 1012.3 |
| 20260904034611 | 66 | 0 | 0.0 | 1.0 | 0.00 | 0.00 | 0.00 | 88 | 1012.7 |
| 20260904033104 | 66 | 0 | 0.0 | 0.0 | 0.00 | 0.00 | 0.00 | 88 | 1012.4 |
| 20260904031606 | 66 | 0 | 0.0 | 1.0 | 0.00 | 0.00 | 0.00 | 88 | 1012.5 |
| 20260904030104 | 66 | 0 | 0.0 | 0.0 | 0.00 | 0.00 | 0.00 | 88 | 1012.4 |
| 20260904024605 | 65 | 0 | 0.0 | 0.0 | 0.00 | 0.00 | 0.00 | 88 | 1012.5 |
| 20260904023103 | 65 | 0 | 0.0 | 0.0 | 0.00 | 0.00 | 0.00 | 88 | 1012.2 |
| 20260904021611 | 65 | 0 | 0.0 | 0.0 | 0.00 | 0.00 | 0.00 | 88 | 1012.1 |
| 20260904014640 | 66 | 0 | 0.0 | 1.0 | 0.00 | 0.00 | 0.00 | 87 | 1012.4 |
| 20260904013056 | 67 | 0 | 0.0 | 2.0 | 0.00 | 0.00 | 0.00 | 86 | 1011.9 |
| 20260904011630 | 68 | 0 | 0.0 | 1.0 | 0.00 | 0.00 | 0.00 | 82 | 1012.3 |
| 20260904010108 | 69 | 0 | 1.0 | 3.0 | 0.00 | 0.00 | 0.00 | 81 | 1012.2 |
| 20260904004601 | 69 | 38 | 0.0 | 1.0 | 0.00 | 0.00 | 0.00 | 79 | 1012.5 |
| 20260904003105 | 70 | 55 | 1.0 | 6.0 | 0.00 | 0.00 | 0.00 | 78 | 1012.4 |